Location: Navarre
(52.9016°N, 113.4144°W)
Time: 12:53:07
(UTC+00:00)

Envisat - Pass Details

Date: 07 December 2021
Orbit: 764 x 766 km, 98.2° (Epoch: 23 January)

Event Time Altitude Azimuth Distance (km) Brightness Sun altitude
Rises 11:59:02 0° 20° (NNE) 3,247 6.5 -30.8°
Reaches altitude 10° 12:01:32 10° 29° (NNE) 2,316 5.8 -30.4°
Maximum altitude 12:06:14 36° 95° (E) 1,203 4.4 -29.7°
Drops below altitude 10° 12:10:53 10° 162° (SSE) 2,299 5.6 -29.0°
Sets 12:13:21 0° 171° (S) 3,220 6.3 -28.6°
